Flag for Germany Weather past 2 weeks in Osterholz-Scharmbeck, Lower Saxony, Germany

Now
56 °F

Scattered clouds.


Feels Like: 56 °F
Forecast: 40 / 60 °F
Wind: 3 mph from Southeast

Location: Bremen

Current Time: Apr 19, 2015 at 5:23:46 PM

Latest Report: Apr 19, 2015 at 4:00 PM


Visibility: 22 mi

Pressure: 30.23 "Hg

Humidity: 44%

Dew point: 35 °F

Location of Osterholz-ScharmbeckLocation

Historic Weather in Osterholz-Scharmbeck — Graph

°F

Osterholz-Scharmbeck temperature yesterday

Maximum temperature yesterday: 56 °F (at 4:00 PM)
Minimum temperature yesterday: 42 °F (at 6:00 AM)
Average temperature yesterday: 48 °F

Past Weeks' High & Low Weather Summary

 TemperatureHumidityPressure
High71 °F (Apr 15, 3:00 PM)100% (Apr 5, 7:00 AM)30.58 "Hg (Apr 5, 7:00 AM)
Low26 °F (Apr 5, 7:00 AM)35% (Apr 5, 7:00 PM)29.88 "Hg (Apr 15, 6:00 PM)
Average47 °F71%30.24 "Hg
* Reported Apr 4 4:00 PM — Apr 19 4:00 PM, Osterholz-Scharmbeck, Weather by CustomWeather, © 2015

Note: Actual official high and low records may vary slightly from our data, if they occured in-between our weather recording intervals... More about our weather records

Advertising

Osterholz-Scharmbeck weather history for previous 24 hours

 ConditionsComfort  
Time TempWeatherWind HumidityBarometerVisibility
4:00 PM
Sun, Apr 19
56 °FScattered clouds.3 mph44%30.23 "Hg22 mi
3:00 PM56 °FScattered clouds.1 mph48%30.24 "Hg22 mi
2:00 PM53 °FScattered clouds.2 mph51%30.23 "Hg22 mi
1:00 PM51 °FScattered clouds.2 mph55%30.23 "Hg22 mi
12:00 PM48 °FPartly sunny.3 mph63%30.23 "Hg19 mi
10:00 AM44 °FOvercast.2 mph74%30.23 "Hg11 mi
9:00 AM42 °FOvercast.2 mph83%30.22 "Hg11 mi
8:00 AM40 °FOvercast.2 mph89%30.20 "Hg11 mi
7:00 AM38 °FOvercast.2 mph91%30.20 "Hg11 mi
6:00 AM39 °FOvercast.2 mph90%30.20 "Hg12 mi
4:00 AM38 °FOvercast.2 mph93%30.21 "Hg9 mi
3:00 AM35 °FOvercast.2 mph93%30.24 "Hg9 mi
2:00 AM37 °FPassing clouds.1 mph91%30.25 "Hg16 mi
1:00 AM39 °FPassing clouds.3 mph88%30.27 "Hg16 mi
12:00 AM39 °FPassing clouds.3 mph89%30.27 "Hg16 mi
11:00 PM
Sat, Apr 18
42 °FPassing clouds.5 mph84%30.28 "Hg22 mi
10:00 PM44 °FPassing clouds.8 mph82%30.29 "Hg22 mi
9:00 PM47 °FPassing clouds.5 mph75%30.27 "Hg22 mi
8:00 PM51 °FOvercast.6 mph54%30.28 "Hg19 mi
7:00 PM53 °FOvercast.7 mph47%30.28 "Hg19 mi
6:00 PM55 °FPartly sunny.5 mph44%30.28 "Hg19 mi
Weather by CustomWeather, © 2015

See weather overviewHow to use our weather pages